KB3AWQ Weather Reports


Display with metric or nautical units.
time (UTC)temp
F
wind
direction
speed
MPH
gust
MPH
rain 1hr
in
rain 24hr
in
rain mn
in
humidity
%
barometer
mb
20260509223927 60 52 3.0 4.0 0.00 0.00 0.39 89 1007.8
20260509223426 60 88 4.0 5.0 0.00 0.00 0.39 88 1007.8
20260509222926 60 84 3.0 5.0 0.00 0.00 0.39 89 1007.9
20260509222426 60 60 3.0 4.0 0.00 0.00 0.39 89 1007.9
20260509221926 60 88 2.0 2.0 0.00 0.00 0.39 89 1007.9
20260509221426 60 44 3.0 3.0 0.00 0.00 0.39 89 1007.9
20260509220926 61 48 2.0 4.0 0.00 0.00 0.39 88 1007.8
20260509220427 61 61 2.0 3.0 0.00 0.00 0.39 88 1007.9
20260509215926 60 17 1.0 2.0 0.00 0.00 0.39 86 1008.1
20260509215426 60 0 0.0 0.0 0.00 0.00 0.39 88 1008.1
20260509214926 60 0 0.0 0.0 0.00 0.00 0.39 87 1008.2
20260509214426 60 140 1.0 2.0 0.00 0.00 0.39 87 1008.1
20260509213927 60 227 1.0 2.0 0.00 0.00 0.39 87 1008.1
20260509213427 61 42 1.0 2.0 0.00 0.00 0.39 87 1008.1
20260509212927 61 35 0.0 1.0 0.00 0.00 0.39 88 1008.2
20260509212426 60 249 0.0 1.0 0.00 0.00 0.39 87 1008.3
20260509211926 60 61 1.0 2.0 0.00 0.00 0.39 88 1008.3
20260509211426 60 0 0.0 0.0 0.00 0.00 0.39 89 1008.4
20260509210926 60 0 0.0 0.0 0.00 0.00 0.39 90 1008.5
20260509210426 60 0 0.0 0.0 0.00 0.00 0.39 92 1008.5
20260509205926 60 310 0.0 1.0 0.00 0.00 0.39 91 1008.5
20260509205427 60 332 1.0 2.0 0.00 0.00 0.39 91 1008.5
20260509204926 59 21 1.0 2.0 0.00 0.00 0.39 89 1008.5
20260509204426 59 0 0.0 0.0 0.01 0.00 0.39 93 1008.5
20260509203926 58 288 0.0 1.0 0.01 0.00 0.39 92 1008.6
20260509203427 58 71 0.0 1.0 0.03 0.00 0.39 93 1008.6
20260509202926 58 0 0.0 0.0 0.03 0.00 0.39 94 1008.6
20260509202426 58 0 0.0 0.0 0.03 0.00 0.39 96 1008.6
20260509201504 57 0 0.0 0.0 0.03 0.00 0.39 96 1008.7
20260509200926 57 0 0.0 0.0 0.03 0.00 0.39 96 1008.8
20260509200426 57 226 1.0 2.0 0.03 0.00 0.39 95 1008.9
20260509195926 56 32 0.0 0.0 0.02 0.00 0.39 96 1008.9
20260509195426 56 0 0.0 0.0 0.02 0.00 0.39 96 1009.0
20260509194927 56 0 0.0 0.0 0.02 0.00 0.39 96 1009.1
20260509194426 56 224 2.0 3.0 0.01 0.00 0.39 95 1009.2
20260509193926 56 0 0.0 0.0 0.01 0.00 0.39 96 1009.2
20260509193426 57 0 0.0 0.0 0.01 0.00 0.38 96 1009.2
20260509192926 56 0 0.0 0.0 0.01 0.00 0.38 96 1009.3
20260509192426 56 0 0.0 0.0 0.01 0.00 0.37 95 1009.3
20260509191926 56 203 0.0 1.0 0.02 0.00 0.37 94 1009.2
20260509191427 56 0 0.0 0.0 0.02 0.00 0.37 96 1009.2
20260509190926 56 0 0.0 0.0 0.03 0.00 0.37 97 1009.2
20260509190426 56 65 0.0 0.0 0.03 0.00 0.37 96 1009.3
20260509185926 55 0 0.0 0.0 0.03 0.00 0.37 97 1009.3
20260509185426 55 19 1.0 3.0 0.04 0.00 0.37 96 1009.3
20260509184927 55 0 0.0 0.0 0.04 0.00 0.37 98 1009.3
20260509184426 55 0 0.0 0.0 0.04 0.00 0.37 98 1009.3
20260509183927 55 48 0.0 1.0 0.04 0.00 0.37 98 1009.3
20260509183427 55 36 1.0 1.0 0.04 0.00 0.36 98 1009.3
20260509182926 55 61 0.0 0.0 0.04 0.00 0.36 99 1009.4
20260509182427 55 224 0.0 1.0 0.04 0.00 0.33 99 1009.4
20260509181926 55 0 0.0 0.0 0.04 0.00 0.32 99 1009.4
20260509181427 54 0 0.0 0.0 0.04 0.00 0.32 100 1009.4
20260509180926 54 320 1.0 2.0 0.04 0.00 0.32 100 1009.4
20260509180426 54 9 2.0 2.0 0.04 0.00 0.31 99 1009.4
20260509175928 54 42 0.0 2.0 0.05 0.00 0.30 99 1009.4
20260509175427 54 0 0.0 0.0 0.05 0.00 0.30 99 1009.4
20260509174926 54 44 1.0 1.0 0.06 0.00 0.30 99 1009.4
20260509174426 54 20 1.0 1.0 0.06 0.00 0.30 100 1009.3
20260509173926 54 0 0.0 0.0 0.07 0.00 0.30 99 1009.3
20260509173427 54 0 0.0 0.0 0.07 0.00 0.29 100 1009.4
20260509172927 54 0 0.0 0.0 0.08 0.00 0.29 100 1009.4
20260509172426 54 39 0.0 0.0 0.08 0.00 0.31 99 1009.4
20260509171926 54 0 0.0 0.0 0.08 0.00 0.30 100 1009.4
20260509171426 54 34 1.0 2.0 0.08 0.00 0.30 100 1009.4
20260509170926 54 0 0.0 0.0 0.08 0.00 0.29 99 1009.4
20260509170427 54 0 0.0 0.0 0.08 0.00 0.28 100 1009.4
20260509165926 53 14 1.0 2.0 0.07 0.00 0.29 100 1009.4
20260509165426 53 0 0.0 0.0 0.05 0.00 0.29 99 1009.4
20260509164926 53 49 1.0 2.0 0.05 0.00 0.28 100 1009.4
20260509164426 53 19 0.0 0.0 0.04 0.00 0.26 100 1009.4
20260509163926 53 17 1.0 1.0 0.03 0.00 0.25 99 1009.4
20260509163427 53 2 0.0 2.0 0.03 0.00 0.24 100 1009.4
20260509162926 53 12 0.0 0.0 0.02 0.00 0.24 99 1009.4
20260509162426 53 58 1.0 2.0 0.03 0.00 0.23 99 1009.4
20260509161926 53 0 0.0 0.0 0.03 0.00 0.23 99 1009.4
20260509161426 53 48 1.0 2.0 0.02 0.00 0.22 98 1009.5
20260509160926 53 44 2.0 3.0 0.03 0.00 0.22 98 1009.6
20260509160426 53 50 0.0 1.0 0.03 0.00 0.22 99 1009.6
20260509155927 53 42 0.0 1.0 0.03 0.00 0.21 98 1009.6
20260509155426 53 20 2.0 2.0 0.03 0.00 0.21 98 1009.6
20260509154926 53 29 0.0 2.0 0.04 0.00 0.20 99 1009.6
20260509154426 53 71 1.0 2.0 0.04 0.00 0.20 98 1009.6
20260509153926 53 8 0.0 0.0 0.04 0.00 0.20 100 1009.7
20260509153428 52 48 1.0 1.0 0.05 0.00 0.20 98 1009.8
20260509152927 52 27 1.0 2.0 0.05 0.00 0.20 100 1009.8
20260509152427 52 0 0.0 0.0 0.05 0.00 0.20 100 1009.8
20260509151926 52 7 1.0 2.0 0.05 0.00 0.20 100 1009.8
20260509151426 52 49 0.0 1.0 0.05 0.00 0.20 99 1010.0
20260509150926 52 359 2.0 2.0 0.04 0.00 0.20 98 1010.0
20260509150428 52 45 1.0 2.0 0.04 0.00 0.19 99 1010.0
20260509145926 51 80 2.0 3.0 0.04 0.00 0.19 100 1010.0
20260509145426 51 68 1.0 2.0 0.04 0.00 0.19 100 1010.0
20260509144926 51 329 0.0 0.0 0.03 0.00 0.18 100 1010.0
20260509144426 51 56 0.0 0.0 0.03 0.00 0.17 100 1010.0
20260509143926 51 83 1.0 3.0 0.04 0.00 0.17 100 1010.1
20260509143426 51 0 0.0 0.0 0.04 0.00 0.16 100 1010.1
20260509142926 51 74 1.0 2.0 0.04 0.00 0.16 100 1010.1
20260509142426 51 68 1.0 2.0 0.04 0.00 0.16 99 1010.0
20260509141926 51 58 1.0 1.0 0.04 0.00 0.16 99 1010.0
20260509141426 51 67 0.0 1.0 0.04 0.00 0.16 99 1010.0
20260509140927 51 44 2.0 2.0 0.04 0.00 0.16 100 1010.0
20260509140426 51 57 2.0 2.0 0.04 0.00 0.15 99 1010.1
20260509135926 51 22 1.0 2.0 0.03 0.00 0.15 99 1010.1
20260509135426 51 0 0.0 0.0 0.03 0.00 0.15 99 1010.1
20260509134927 51 89 0.0 1.0 0.03 0.00 0.14 99 1010.1
20260509134426 51 67 0.0 1.0 0.02 0.00 0.14 99 1010.1
20260509133926 51 0 0.0 0.0 0.02 0.00 0.14 99 1010.2
20260509133426 51 0 0.0 0.0 0.02 0.00 0.13 99 1010.2
20260509132926 51 0 0.0 0.0 0.02 0.00 0.13 99 1010.3
20260509132426 51 53 2.0 2.0 0.02 0.00 0.13 99 1010.3
20260509131929 51 61 1.0 2.0 0.02 0.00 0.13 99 1010.3
20260509131427 51 19 2.0 2.0 0.02 0.00 0.13 99 1010.3
20260509130926 51 45 0.0 1.0 0.02 0.00 0.13 99 1010.4
20260509130427 51 36 1.0 2.0 0.02 0.00 0.12 99 1010.4
20260509125926 51 0 0.0 0.0 0.02 0.00 0.12 99 1010.4
20260509125426 51 0 0.0 0.0 0.02 0.00 0.12 99 1010.4
20260509124926 51 60 1.0 2.0 0.01 0.00 0.12 99 1010.4
20260509124426 51 0 0.0 0.0 0.01 0.00 0.12 99 1010.5
20260509123927 51 0 0.0 0.0 0.01 0.00 0.12 99 1010.5
20260509123426 50 0 0.0 0.0 0.01 0.00 0.11 99 1010.5
20260509122928 51 0 0.0 0.0 0.01 0.00 0.11 99 1010.5
20260509122426 51 0 0.0 0.0 0.01 0.00 0.11 99 1010.5
20260509121926 50 0 0.0 0.0 0.01 0.00 0.11 99 1010.5
20260509121426 50 0 0.0 0.0 0.01 0.00 0.11 99 1010.5
20260509120926 50 0 0.0 0.0 0.01 0.00 0.10 99 1010.5
20260509120427 50 0 0.0 0.0 0.01 0.00 0.10 99 1010.5
20260509115926 50 0 0.0 0.0 0.01 0.00 0.10 99 1010.5
20260509115426 50 0 0.0 0.0 0.01 0.00 0.10 99 1010.5
20260509114926 50 0 0.0 0.0 0.01 0.00 0.10 99 1010.4
20260509114426 50 0 0.0 0.0 0.01 0.00 0.10 99 1010.5
20260509113927 50 0 0.0 0.0 0.01 0.00 0.10 99 1010.5
20260509113426 50 0 0.0 0.0 0.01 0.00 0.10 99 1010.5
20260509112928 50 0 0.0 0.0 0.01 0.00 0.10 99 1010.5
20260509112427 50 0 0.0 0.0 0.01 0.00 0.10 99 1010.5
20260509111926 50 0 0.0 0.0 0.01 0.00 0.10 99 1010.5
20260509111427 50 69 0.0 0.0 0.01 0.00 0.10 99 1010.4
20260509110926 50 0 0.0 0.0 0.01 0.00 0.10 99 1010.5
20260509110427 50 0 0.0 0.0 0.01 0.00 0.09 99 1010.5
20260509105927 50 32 2.0 3.0 0.01 0.00 0.09 99 1010.4
20260509105426 50 0 0.0 0.0 0.00 0.00 0.09 99 1010.5
20260509104926 50 0 0.0 0.0 0.00 0.00 0.09 99 1010.5
20260509104426 50 48 1.0 1.0 0.00 0.00 0.09 99 1010.5
20260509103926 50 0 0.0 0.0 0.00 0.00 0.09 99 1010.5
20260509103426 50 0 0.0 0.0 0.00 0.00 0.09 99 1010.5
20260509102926 50 0 0.0 0.0 0.00 0.00 0.09 99 1010.5
20260509102426 50 0 0.0 0.0 0.00 0.00 0.09 99 1010.4
20260509101926 50 0 0.0 0.0 0.00 0.00 0.09 99 1010.4
20260509101426 50 22 2.0 3.0 0.00 0.00 0.09 99 1010.3
20260509100926 50 57 1.0 2.0 0.00 0.00 0.09 99 1010.3
20260509100427 50 63 2.0 2.0 0.00 0.00 0.09 99 1010.2
20260509095926 50 34 0.0 0.0 0.00 0.00 0.08 99 1010.3
20260509095426 50 23 1.0 2.0 0.00 0.00 0.08 99 1010.3
20260509094926 50 40 0.0 1.0 0.01 0.00 0.08 99 1010.3
20260509094426 50 21 2.0 3.0 0.01 0.00 0.08 99 1010.4
20260509093928 50 0 0.0 0.0 0.01 0.00 0.08 99 1010.5
20260509093426 50 66 2.0 3.0 0.01 0.00 0.08 99 1010.5
20260509092927 50 36 1.0 2.0 0.01 0.00 0.08 99 1010.5
20260509092426 50 63 0.0 1.0 0.01 0.00 0.08 99 1010.6
20260509091926 50 0 0.0 0.0 0.01 0.00 0.08 99 1010.7
20260509091426 50 56 2.0 2.0 0.01 0.00 0.08 99 1010.8
20260509090926 50 44 0.0 1.0 0.01 0.00 0.08 99 1010.8
20260509090427 50 85 1.0 2.0 0.01 0.00 0.08 99 1010.7
20260509085926 50 49 1.0 2.0 0.00 0.00 0.08 99 1010.6
20260509085426 50 41 1.0 2.0 0.00 0.00 0.08 99 1010.7
20260509084928 50 22 2.0 3.0 0.00 0.00 0.08 99 1010.5
20260509084427 50 59 2.0 4.0 0.00 0.00 0.08 99 1010.5
20260509083926 50 27 2.0 4.0 0.00 0.00 0.08 99 1010.6
20260509083426 50 66 1.0 3.0 0.00 0.00 0.07 99 1010.6
20260509082926 50 22 1.0 3.0 0.00 0.00 0.07 99 1010.7
20260509082427 50 56 0.0 1.0 0.01 0.00 0.07 99 1010.5
20260509081926 50 44 0.0 2.0 0.01 0.00 0.07 99 1010.5
20260509081426 50 45 1.0 2.0 0.01 0.00 0.07 99 1010.5
20260509080926 50 51 1.0 3.0 0.02 0.00 0.07 99 1010.5
20260509080431 50 49 2.0 3.0 0.02 0.00 0.07 99 1010.5
20260509075926 50 36 2.0 2.0 0.02 0.00 0.07 99 1010.5
20260509075428 50 58 2.0 2.0 0.02 0.00 0.07 99 1010.7
20260509074927 50 23 0.0 2.0 0.03 0.00 0.07 99 1010.7
20260509074427 50 26 2.0 3.0 0.03 0.00 0.07 99 1010.7
20260509073926 50 87 2.0 4.0 0.03 0.00 0.07 99 1010.7
20260509073426 50 71 3.0 4.0 0.05 0.00 0.07 99 1010.7
20260509072932 50 23 2.0 4.0 0.05 0.00 0.07 99 1010.8
20260509072426 50 40 2.0 3.0 0.05 0.00 0.07 99 1010.8
20260509071926 50 54 1.0 2.0 0.05 0.00 0.08 99 1011.0
20260509071427 50 0 0.0 0.0 0.05 0.00 0.08 99 1011.0
20260509070927 50 0 0.0 0.0 0.05 0.00 0.08 99 1011.2
20260509070427 50 0 0.0 0.0 0.05 0.00 0.07 99 1011.2
20260509065926 50 0 0.0 0.0 0.03 0.00 0.07 99 1011.3
20260509065427 50 0 0.0 0.0 0.03 0.00 0.07 99 1011.4
20260509064926 50 0 0.0 0.0 0.03 0.00 0.06 99 1011.4
20260509064427 50 0 0.0 0.0 0.03 0.00 0.05 99 1011.5
20260509063926 50 0 0.0 0.0 0.03 0.00 0.05 99 1011.6
20260509063426 50 0 0.0 0.0 0.03 0.00 0.04 99 1011.7
20260509062926 50 0 0.0 0.0 0.02 0.00 0.04 99 1011.6
20260509062427 50 0 0.0 0.0 0.02 0.00 0.04 99 1011.6
20260509061927 50 0 0.0 0.0 0.02 0.00 0.03 99 1011.8
20260509061427 50 0 0.0 0.0 0.01 0.00 0.03 99 1011.9
20260509060926 50 0 0.0 0.0 0.01 0.00 0.03 99 1011.9
20260509060426 50 0 0.0 0.0 0.02 0.00 0.02 99 1011.9
20260509055926 50 0 0.0 0.0 0.01 0.00 0.02 99 1012.0
20260509055427 50 0 0.0 0.0 0.01 0.00 0.02 99 1011.9
20260509054926 50 0 0.0 0.0 0.01 0.00 0.02 99 1011.9
20260509054426 50 0 0.0 0.0 0.01 0.00 0.02 99 1011.9
20260509053926 50 0 0.0 0.0 0.01 0.00 0.02 99 1011.9
20260509053427 50 0 0.0 0.0 0.01 0.00 0.01 99 1012.0
20260509052926 50 0 0.0 0.0 0.01 0.00 0.01 99 1011.9
20260509052426 50 0 0.0 0.0 0.01 0.00 0.01 99 1011.9
20260509051927 50 0 0.0 0.0 0.01 0.00 0.01 99 1011.9
20260509051426 50 0 0.0 0.0 0.01 0.00 0.01 99 1011.9
20260509050926 50 0 0.0 0.0 0.01 0.00 0.01 99 1012.0
20260509050426 50 0 0.0 0.0 0.01 0.00 0.01 99 1012.0
20260509045927 50 0 0.0 0.0 0.02 0.00 0.01 99 1012.1
20260509045426 50 0 0.0 0.0 0.02 0.00 0.01 99 1012.1
20260509044926 50 0 0.0 0.0 0.02 0.00 0.01 99 1012.1
20260509044426 50 0 0.0 0.0 0.03 0.00 0.01 99 1012.1
20260509043927 50 0 0.0 0.0 0.03 0.00 0.01 99 1012.0
20260509043426 51 0 0.0 0.0 0.05 0.00 0.01 99 1012.0
20260509042926 51 0 0.0 0.0 0.05 0.00 0.01 99 1011.9
20260509042427 51 0 0.0 0.0 0.05 0.00 0.01 99 1011.8
20260509041926 51 0 0.0 0.0 0.05 0.00 0.00 99 1011.9
20260509041427 51 0 0.0 0.0 0.04 0.00 0.00 99 1011.8
20260509040927 51 20 2.0 3.0 0.03 0.00 0.00 99 1011.8
20260509040426 51 0 0.0 0.0 0.03 0.00 0.00 99 1011.8
20260509035927 50 0 0.0 0.0 0.02 0.00 0.17 99 1011.8
20260509035427 50 0 0.0 0.0 0.01 0.00 0.17 99 1011.8
20260509034926 50 0 0.0 0.0 0.01 0.00 0.16 99 1012.0
20260509034427 50 0 0.0 0.0 0.00 0.00 0.15 99 1012.1
20260509033926 50 0 0.0 0.0 0.00 0.00 0.15 99 1012.2
20260509033426 50 0 0.0 0.0 0.01 0.00 0.14 99 1012.2
20260509032926 50 0 0.0 0.0 0.01 0.00 0.14 99 1012.3
20260509032426 50 0 0.0 0.0 0.01 0.00 0.14 99 1012.3
20260509031927 50 0 0.0 0.0 0.02 0.00 0.13 99 1012.2
20260509031426 50 0 0.0 0.0 0.02 0.00 0.13 99 1012.2
20260509030926 50 0 0.0 0.0 0.02 0.00 0.13 99 1012.3
20260509030429 50 0 0.0 0.0 0.02 0.00 0.13 99 1012.5
20260509025926 50 0 0.0 0.0 0.02 0.00 0.13 99 1012.5
20260509025426 50 0 0.0 0.0 0.02 0.00 0.13 99 1012.3
20260509024926 50 0 0.0 0.0 0.02 0.00 0.13 99 1012.2
20260509024426 50 0 0.0 0.0 0.01 0.00 0.13 99 1012.3
20260509023926 50 0 0.0 0.0 0.01 0.00 0.13 99 1012.2
20260509023426 50 0 0.0 0.0 0.01 0.00 0.13 99 1012.1
20260509022927 50 0 0.0 0.0 0.00 0.00 0.13 99 1012.2
20260509022427 50 0 0.0 0.0 0.00 0.00 0.13 99 1012.2
20260509021926 50 0 0.0 0.0 0.00 0.00 0.12 99 1012.2
20260509021426 50 0 0.0 0.0 0.00 0.00 0.12 99 1012.3
20260509020926 50 0 0.0 0.0 0.00 0.00 0.12 99 1012.3
20260509020426 50 0 0.0 0.0 0.00 0.00 0.12 99 1012.2
20260509015926 50 0 0.0 0.0 0.00 0.00 0.12 99 1012.3
20260509015427 50 0 0.0 0.0 0.00 0.00 0.12 99 1012.2
20260509014926 50 0 0.0 0.0 0.00 0.00 0.12 99 1012.1
20260509014426 50 0 0.0 0.0 0.00 0.00 0.12 100 1012.0
20260509013926 50 0 0.0 0.0 0.00 0.00 0.12 100 1012.0
20260509013427 50 0 0.0 0.0 0.00 0.00 0.12 100 1011.9
20260509012926 50 0 0.0 0.0 0.00 0.00 0.12 99 1011.9
20260509012426 50 0 0.0 0.0 0.00 0.00 0.12 100 1011.8
20260509011926 50 0 0.0 0.0 0.00 0.00 0.12 99 1011.7
20260509011426 50 0 0.0 0.0 0.00 0.00 0.12 99 1011.6
20260509010927 50 0 0.0 0.0 0.00 0.00 0.12 99 1011.6
20260509010426 51 0 0.0 0.0 0.00 0.00 0.12 99 1011.5
20260509005926 51 0 0.0 0.0 0.00 0.00 0.12 99 1011.5
20260509005426 51 0 0.0 0.0 0.00 0.00 0.12 98 1011.4
20260509004926 51 0 0.0 0.0 0.00 0.00 0.12 98 1011.4
20260509004426 51 18 0.0 0.0 0.00 0.00 0.12 98 1011.4
20260509003927 51 0 0.0 0.0 0.00 0.00 0.12 97 1011.5
20260509003427 51 0 0.0 0.0 0.00 0.00 0.12 97 1011.4
20260509002927 52 0 0.0 0.0 0.00 0.00 0.12 96 1011.4
20260509002426 52 0 0.0 0.0 0.00 0.00 0.12 96 1011.3
20260509001927 53 0 0.0 0.0 0.00 0.00 0.12 96 1011.3
20260509001426 53 0 0.0 0.0 0.00 0.00 0.12 95 1011.3
20260509000926 53 0 0.0 0.0 0.00 0.00 0.12 95 1011.3
20260509000427 53 0 0.0 0.0 0.00 0.00 0.12 95 1011.3
20260508235927 53 0 0.0 0.0 0.00 0.00 0.12 94 1011.3
20260508235426 53 0 0.0 0.0 0.00 0.00 0.12 94 1011.3
20260508234927 54 15 0.0 1.0 0.00 0.00 0.12 93 1011.2
20260508234426 54 59 0.0 1.0 0.00 0.00 0.12 94 1011.2
20260508233926 54 0 0.0 0.0 0.00 0.00 0.12 94 1011.1
20260508233426 54 0 0.0 0.0 0.01 0.00 0.12 93 1011.0
20260508232926 54 0 0.0 0.0 0.01 0.00 0.12 93 1011.0
20260508232426 54 0 0.0 0.0 0.03 0.00 0.13 92 1010.9
20260508231927 54 0 0.0 0.0 0.04 0.00 0.13 91 1010.9
20260508231426 54 5 0.0 1.0 0.04 0.00 0.13 92 1010.8
20260508230926 54 28 0.0 1.0 0.04 0.00 0.13 90 1010.9
20260508230426 54 0 0.0 0.0 0.04 0.00 0.13 92 1011.0
20260508225926 54 0 0.0 0.0 0.04 0.00 0.12 92 1011.0
20260508225426 54 0 0.0 0.0 0.05 0.00 0.12 92 1011.0
20260508224926 54 0 0.0 0.0 0.05 0.00 0.12 93 1010.8
20260508224427 54 330 0.0 1.0 0.04 0.00 0.12 93 1010.9